Location: Byszew
(52.1813°N, 19.2693°E)
Time: 01:59:32
(UTC+00:00)

Envisat - Pass Details

Date: 04 February 2022
Orbit: 764 x 765 km, 98.2° (Epoch: 28 May)

Event Time Altitude Azimuth Distance (km) Brightness Sun altitude
Rises 03:41:41 0° 15° (NNE) 3,244 6.5 -24.2°
Reaches altitude 10° 03:44:01 10° 17° (NNE) 2,314 5.7 -23.9°
Maximum altitude 03:49:07 77° 104° (ESE) 790 3.1 -23.1°
Drops below altitude 10° 03:54:12 10° 191° (S) 2,298 5.3 -22.3°
Sets 03:56:29 0° 192° (SSW) 3,220 6.1 -22.0°
